Weather History for Al Udeid, Qatar

Change the Weather History Date:

Saturday, October 19, 2013

  Actual Average Record
Temperature  
Mean Temperature 83 °F -  
Max Temperature 98 °F - - ()
Min Temperature 68 °F - - ()
Cooling Degree Days 18    
Growing Degree Days 33 (Base 50)    
Moisture  
Dew Point 66 °F    
Average Humidity 82    
Maximum Humidity 100    
Minimum Humidity 13    
Precipitation  
Precipitation 0.00 in - - ()
Sea Level Pressure  
Sea Level Pressure 29.93 in    
Wind  
Wind Speed 4 mph ()    
Max Wind Speed 13 mph    
Max Gust Speed -    
Visibility 2.9 miles    
Events Fog    
T = Trace of Precipitation, MM = Missing Value Source: Averaged Metar Reports

Daily Weather History Graph

Daily Weather History Graph

Search for Another Location

Airport:

Trip Planner

Search our weather history database for the weather conditions in past years. The results will help you decide how hot, cold, wet, or windy it might be!

Date:

Astronomy

Oct. 19, 2013 Rise Set
Actual Time 5:34 AM AST 5:04 PM AST
Civil Twilight 5:11 AM AST 5:27 PM AST
Nautical Twilight 4:45 AM AST 5:53 PM AST
Astronomical Twilight 4:18 AM AST 6:20 PM AST
Moon 5:22 PM AST (10/19) 5:45 AM AST (10/19)
Length of Visible Light 12h 15m
Length of Day
11h 29m
Full, 100% of the Moon is Illuminated
Oct 19
Full
Oct 27
Last Quarter
Nov 3
New
Nov 10
First Quarter
Nov 17
Full

Hourly Weather History & Observations

Time (AST) Temp. Heat Index Dew Point Humidity Pressure Visibility Wind Dir Wind Speed Gust Speed Precip Events Conditions
12:55 AM 73.6 °F - 68.5 °F 84% 29.91 in 6.2 mi North 4.6 mph - N/A   Clear
1:55 AM 69.6 °F - 64.8 °F 84% 29.91 in 6.2 mi Calm Calm - N/A   Clear
2:55 AM 69.1 °F - 64.4 °F 85% 29.91 in 6.2 mi NW 4.6 mph - N/A   Clear
3:24 AM 68.0 °F - 66.2 °F 94% 29.91 in - WNW 3.5 mph - N/A   Clear
3:25 AM 68.0 °F - 66.2 °F 94% 29.91 in - WNW 3.5 mph - N/A   Partly Cloudy
3:26 AM 68.0 °F - 66.2 °F 94% 29.91 in 1.7 mi WNW 3.5 mph - N/A   Partly Cloudy
3:27 AM 68.0 °F - 66.2 °F 94% 29.91 in 1.2 mi WNW 4.6 mph - N/A   Partly Cloudy
3:28 AM 68.0 °F - 66.2 °F 94% 29.91 in 1.0 mi WNW 4.6 mph - N/A   Mist
3:29 AM 68.0 °F - 66.2 °F 94% 29.91 in 0.7 mi NW 4.6 mph - N/A   Mist
3:31 AM 68.0 °F - 66.2 °F 94% 29.91 in 0.5 mi NW 5.8 mph - N/A Fog Fog
3:35 AM 68.0 °F - 66.2 °F 94% 29.91 in 0.5 mi NW 6.9 mph - N/A Fog Fog
3:36 AM 68.0 °F - 66.2 °F 94% 29.91 in 0.2 mi NW 6.9 mph - N/A Fog Fog
3:37 AM 68.0 °F - 66.2 °F 94% 29.91 in 0.2 mi NW 6.9 mph - N/A Fog Fog
3:38 AM 68.0 °F - 66.2 °F 94% 29.91 in 0.2 mi NW 6.9 mph - N/A Fog Fog
3:40 AM 68.0 °F - 66.2 °F 94% 29.91 in 0.2 mi NW 8.1 mph - N/A Fog Fog
3:42 AM 68.0 °F - 66.2 °F 94% 29.91 in 0.5 mi NW 6.9 mph - N/A Fog Fog
3:46 AM 68.0 °F - 68.0 °F 100% 29.91 in 0.2 mi WNW 3.5 mph - N/A Fog Fog
3:52 AM 68.0 °F - 68.0 °F 100% 29.91 in - WNW 3.5 mph - N/A Fog Fog
3:53 AM 68.0 °F - 68.0 °F 100% 29.91 in - WNW 3.5 mph - N/A Fog Fog
3:54 AM 68.0 °F - 68.0 °F 100% 29.91 in - Calm Calm - N/A Fog Fog
3:55 AM 68.7 °F - 68.5 °F 99% 29.91 in - Calm Calm - N/A Fog Fog
3:59 AM 69.8 °F - 69.8 °F 100% 29.91 in - WNW 2.3 mph - N/A Fog Fog
4:21 AM 69.8 °F - 69.8 °F 100% 29.91 in - WNW 3.5 mph - N/A Fog Fog
4:55 AM 70.3 °F - 69.8 °F 98% 29.93 in 0.2 mi Calm Calm - N/A Fog Fog
5:06 AM 69.8 °F - 69.8 °F 100% 29.93 in 0.2 mi Calm Calm - N/A Fog Fog
5:27 AM 69.8 °F - 69.8 °F 100% 29.94 in - Calm Calm - N/A Fog Fog
5:28 AM 69.8 °F - 69.8 °F 100% 29.94 in - NW 3.5 mph - N/A Fog Fog
5:55 AM 71.4 °F - 71.6 °F 100% 29.94 in - NNW 3.5 mph - N/A Fog Fog
6:26 AM 69.8 °F - 69.8 °F 100% 29.95 in - NNW 5.8 mph - N/A Fog Fog
6:37 AM 71.6 °F - - N/A% 29.96 in - Calm Calm - N/A Fog Fog
6:43 AM 71.6 °F - 71.6 °F 100% 29.96 in - SSW 3.5 mph - N/A Fog Fog
6:49 AM 71.6 °F - 71.6 °F 100% 29.96 in 0.2 mi Calm Calm - N/A Fog Fog
6:55 AM 71.2 °F - 71.6 °F 100% 29.96 in 0.2 mi SW 4.6 mph - N/A Fog Fog
6:59 AM 71.6 °F - 71.6 °F 100% 29.96 in 0.2 mi Variable 3.5 mph - N/A Fog Fog
7:06 AM 71.6 °F - 71.6 °F 100% 29.96 in 0.2 mi SSW 5.8 mph - N/A Fog Fog
7:40 AM 71.6 °F - - N/A% 29.97 in 0.2 mi NW 8.1 mph - N/A Fog Fog
7:41 AM 71.6 °F - 71.6 °F 100% 29.97 in 0.2 mi NW 8.1 mph - N/A Fog Fog
7:44 AM 71.6 °F - 71.6 °F 100% 29.97 in 0.2 mi NW 8.1 mph - N/A Fog Fog
7:47 AM 71.6 °F - 71.6 °F 100% 29.97 in 0.2 mi NW 8.1 mph - N/A Fog Fog
7:48 AM 71.6 °F - 71.6 °F 100% 29.97 in 0.5 mi NW 8.1 mph - N/A Fog Fog
7:50 AM 71.6 °F - 71.6 °F 100% 29.97 in 0.5 mi NW 6.9 mph - N/A Fog Fog
7:52 AM 71.6 °F - 71.6 °F 100% 29.97 in 0.7 mi NW 6.9 mph - N/A   Mist
7:54 AM 71.6 °F - 71.6 °F 100% 29.97 in 1.0 mi NW 6.9 mph - N/A   Mist
7:55 AM 72.5 °F - 73.4 °F 100% 29.97 in 1.0 mi NW 6.9 mph - N/A   Mist
7:56 AM 73.4 °F - 73.4 °F 100% 29.97 in 1.5 mi NW 8.1 mph - N/A   Scattered Clouds
7:57 AM 73.4 °F - 73.4 °F 100% 29.97 in 1.7 mi NW 8.1 mph - N/A   Scattered Clouds
8:00 AM 73.4 °F - 71.6 °F 94% 29.97 in 3.7 mi NW 5.8 mph - N/A   Haze
8:09 AM 73.4 °F - 71.6 °F 94% 29.97 in 6.2 mi NW 5.8 mph - N/A   Clear
8:55 AM 77.0 °F - 71.6 °F 83% 29.97 in 6.2 mi WNW 4.6 mph - N/A   Clear
9:55 AM 87.4 °F 91.5 °F 68.7 °F 54% 29.98 in 6.2 mi Calm Calm - N/A   Clear
10:55 AM 90.9 °F 94.0 °F 66.9 °F 45% 29.96 in 6.2 mi Calm Calm - N/A   Clear
11:55 AM 96.4 °F - 48.9 °F 20% 29.93 in 6.2 mi ENE 10.4 mph - N/A   Clear
12:55 PM 98.4 °F - 41.7 °F 14% 29.91 in 6.2 mi ENE 11.5 mph - N/A   Clear
1:55 PM 98.2 °F - 38.5 °F 13% 29.89 in 6.2 mi East 12.7 mph - N/A   Clear
2:55 PM 97.3 °F - 39.4 °F 13% 29.89 in 6.2 mi East 12.7 mph - N/A   Clear
3:55 PM 96.3 °F - 42.3 °F 16% 29.90 in 6.2 mi East 11.5 mph - N/A   Clear
4:55 PM 93.0 °F - 46.9 °F 20% 29.91 in 6.2 mi East 8.1 mph - N/A   Clear
5:55 PM 88.9 °F - 49.3 °F 26% 29.92 in 6.2 mi East 4.6 mph - N/A   Clear
6:55 PM 85.8 °F 85.0 °F 58.3 °F 39% 29.93 in 6.2 mi ENE 5.8 mph - N/A   Clear
7:55 PM 85.3 °F 83.6 °F 54.0 °F 34% 29.94 in 6.2 mi NE 5.8 mph - N/A   Clear
8:55 PM 83.1 °F 82.1 °F 54.3 °F 37% 29.95 in 6.2 mi North 9.2 mph - N/A   Clear
9:55 PM 80.4 °F 83.9 °F 70.5 °F 72% 29.94 in 6.2 mi North 8.1 mph - N/A   Clear
10:55 PM 77.7 °F - 70.2 °F 77% 29.93 in 6.2 mi North 4.6 mph - N/A   Clear
11:55 PM 78.8 °F - 68.7 °F 71% 29.92 in 6.2 mi NNE 8.1 mph - N/A   Clear